EHI
0 0 0 1 1 1 1 1 1 2 1 2 2 1 0 0 0 0 0 0 0 0 0 0 0 0 0 0 0 0 0 0 0 0 0 0 0 0 0 0 0 0 0
1 1 1 2 2 2 2 1 1 2 1 1 1 0 0 0 0 0 0 0 0 0 0 0 0 0 0 0 0 0 0 0 0 0 0 0 0 0 0 0 0 0 0
3 2 2 3 3 3 2 1 1 1 0 0 0 0 0 0 0 0 0 0 0 0 0 0 0 0 0 0 0 0 0 0 0 0 0 0 0 0 0 0 0 0 0
4 2 2 3 3 3 1 0 0 0 0 1 1 1 0 0 0 1 1 0 0 0 0 1 0 0 0 0 0 0 0 0 0 0 0 0 0 0 0 0 0 0 0
2 1 2 3 3 2 1 0 0 0 0 1 1 1 0 0 1 2 2 1 1 1 0 0 0 0 0 0 0 1 1 0 0 0 0 0 0 0 0 0 0 0 0
1 1 2 3 2 1 0 0 0 0 0 0 0 0 0 1 2 3 2 2 2 1 0 0 0 0 0 0 0 1 1 0 0 0 0 0 0 0 0 0 0 0 0
0 0 2 3 1 0 0 0 0 0 0 0 0 0 1 2 3 3 2 2 1 1 0 0 0 0 0 0 0 1 1 0 0 0 0 0 0 0 0 0 0 0 0
0 0 1 2 1 0 0 0 0 0 0 0 0 1 2 3 3 2 1 1 0 0 0 0 0 0 0 0 0 0 0 0 0 0 0 0 0 0 0 0 0 0 0
0 0 0 0 0 0 0 0 0 0 0 0 0 1 2 3 3 1 0 0 0 0 0 0 0 0 0 0 0 1 1 1 0 0 0 0 0 0 0 0 0 0 0
0 0 0 0 0 0 0 0 0 0 0 0 0 0 1 2 2 1 0 0 0 0 0 0 0 1 1 2 2 2 2 1 0 0 0 0 0 0 1 1 0 0 0
1 0 0 0 0 0 0 0 0 0 0 0 0 0 0 1 1 0 1 1 0 0 0 0 1 2 3 3 3 3 2 1 0 0 0 0 0 1 2 2 1 0 0
2 1 0 0 0 0 0 0 0 0 0 0 0 0 0 0 0 0 1 1 0 0 0 0 1 2 2 2 1 1 1 0 0 0 1 1 1 1 2 3 2 1 0
4 2 1 1 0 0 0 0 0 0 0 0 0 0 0 0 0 0 1 1 0 0 0 0 1 1 0 0 0 0 0 0 0 0 1 2 2 2 3 4 3 1 0
5 3 2 2 1 1 1 1 1 1 1 0 0 0 0 0 0 0 0 0 0 0 0 0 0 0 0 0 0 0 0 0 0 0 1 2 3 3 5 5 4 2 1
10 8 7 5 3 3 3 3 3 3 3 1 1 0 0 0 0 0 0 0 0 0 0 0 0 0 0 0 0 0 0 0 0 0 0 1 3 4 6 6 5 3 2
19 18 16 12 9 7 6 5 4 5 6 4 2 1 2 2 2 1 1 0 0 0 0 0 0 0 0 0 0 0 0 0 0 0 0 1 2 5 6 6 6 4 3
28 29 27 21 16 12 10 8 5 4 7 8 6 5 6 6 5 4 3 1 0 0 0 0 0 0 0 0 0 0 0 0 0 0 0 0 1 3 5 6 6 5 4
38 36 33 28 21 15 12 9 5 3 5 9 9 9 10 10 8 7 5 3 1 0 0 0 0 0 0 0 0 0 0 0 0 0 0 0 0 1 2 5 7 6 5
43 40 36 31 24 18 13 10 6 3 5 8 11 12 12 13 11 9 6 4 2 1 0 0 0 0 0 0 0 0 0 0 0 0 0 0 0 0 0 2 5 6 6
48 45 41 36 29 24 20 14 9 6 5 6 10 12 13 15 14 11 7 5 4 3 2 1 0 0 0 0 0 0 0 0 0 0 0 0 0 0 0 1 2 3 5
59 57 52 45 36 32 28 21 15 9 4 3 8 11 13 15 15 13 10 8 7 6 5 3 1 0 0 0 0 0 0 0 0 0 0 0 0 0 0 0 0 1 3
72 69 64 54 45 39 34 26 18 12 6 3 5 9 12 14 15 15 13 11 10 9 8 6 3 2 1 0 0 0 0 0 0 0 0 0 0 0 0 0 0 1 2
80 78 72 62 51 43 37 31 25 20 13 7 6 7 9 11 13 15 15 13 12 11 9 8 7 6 4 2 0 0 0 0 0 0 0 0 0 0 0 0 1 2 2
84 83 78 69 58 47 40 36 34 30 21 12 9 7 6 8 12 14 14 13 13 11 10 8 7 7 6 3 1 0 0 0 0 0 0 0 0 0 0 0 1 2 3
86 85 82 75 64 54 45 40 39 35 24 15 12 9 5 6 10 12 12 12 12 11 10 7 6 6 6 4 2 1 0 0 0 0 0 0 0 0 0 0 0 1 2
87 86 82 76 68 58 48 42 39 34 24 17 15 11 7 6 9 12 12 11 11 11 10 7 5 4 5 5 3 2 1 0 0 0 0 0 0 0 0 0 0 0 1
Wind_Speed
2 4 11 13 14 15 16 17 18 18 18 19 19 19 19 20 20 20 20 19 19 19 19 18 18 18 17 17 17 17 17 17 16 16 16 15 15 15 15 16 14 11 16
6 6 11 13 15 15 16 17 17 18 18 19 19 19 19 19 20 19 19 18 18 18 18 18 17 17 16 16 16 16 16 16 16 16 16 14 15 14 14 15 14 10 15
8 6 10 13 15 16 16 16 17 18 18 19 18 18 18 19 19 19 18 18 17 17 17 17 16 16 15 15 15 15 15 15 15 15 14 7 9 13 14 14 14 14 14
9 6 9 14 15 16 16 16 16 17 18 18 18 18 18 18 18 18 17 17 16 16 16 16 15 15 14 14 14 13 13 13 14 14 7 5 6 13 13 14 14 14 14
8 6 9 15 15 15 15 15 15 16 17 17 17 17 17 17 17 17 16 16 15 15 15 15 14 14 13 12 12 11 11 12 14 11 6 5 5 11 13 13 13 13 13
8 6 9 15 15 15 15 14 15 15 16 16 16 16 16 16 16 16 16 15 14 14 14 13 13 12 11 10 10 10 11 13 11 7 6 5 4 10 12 12 12 12 12
8 6 8 14 15 15 14 14 14 14 15 15 15 15 15 15 15 15 14 14 13 13 12 12 11 10 10 9 10 10 11 14 8 6 5 4 5 10 12 11 11 11 12
10 7 8 14 14 14 14 14 13 14 14 15 15 14 14 14 14 13 13 13 12 11 11 10 9 9 8 8 8 10 12 12 9 7 5 4 8 10 11 11 11 11 12
10 8 6 7 9 13 14 13 13 14 13 14 14 14 13 13 13 12 12 11 11 10 9 8 8 7 7 7 7 8 9 12 6 4 6 4 8 10 11 11 11 11 11
9 7 6 5 5 5 7 12 13 13 13 13 13 13 12 12 12 11 10 10 10 9 8 7 6 5 5 5 6 8 11 10 5 4 3 5 9 10 11 11 11 11 11
9 6 6 6 5 5 5 9 9 11 11 11 10 12 9 4 5 6 8 9 9 8 7 5 4 3 3 3 5 7 8 4 4 3 3 7 10 10 11 11 10 10 10
10 9 7 7 6 6 6 5 3 4 4 4 3 5 3 3 3 4 7 8 7 6 5 4 2 1 1 1 3 5 3 4 3 3 4 9 10 10 10 10 10 10 10
12 11 9 8 7 6 4 4 2 2 3 3 4 4 3 2 2 2 2 2 2 3 1 1 0 0 0 0 1 2 3 3 2 3 4 10 9 10 10 10 9 9 9
11 10 9 9 7 6 5 4 4 3 3 3 3 4 3 2 2 2 1 1 1 1 1 1 1 1 1 1 2 3 4 3 2 2 4 10 9 10 10 10 9 9 9
10 10 10 9 9 7 6 4 4 4 4 4 4 4 5 3 3 3 2 2 2 1 2 1 1 1 1 1 2 4 5 5 5 4 3 10 10 10 10 10 10 10 10
9 9 8 8 8 7 6 5 4 4 4 4 3 5 5 4 4 3 3 2 2 2 2 2 2 1 1 2 2 4 5 5 5 5 4 6 10 10 10 10 10 10 10
10 9 8 8 7 7 6 5 4 4 4 4 4 5 5 5 4 4 3 2 2 2 2 1 1 1 1 1 2 3 4 4 5 5 5 4 5 9 11 11 11 11 11
10 9 9 9 8 7 5 4 3 3 4 3 3 3 4 5 5 4 3 2 2 1 1 1 1 1 0 0 1 1 2 3 5 5 5 5 4 5 8 12 12 11 11
12 10 8 7 7 6 5 4 4 3 4 3 3 3 3 4 5 4 3 2 2 2 1 2 1 1 1 1 1 1 2 3 4 6 6 6 6 5 5 9 12 12 13
11 10 9 8 7 6 4 3 2 3 2 3 3 3 4 3 4 4 2 2 2 2 1 1 1 1 1 1 1 1 2 2 3 4 6 6 6 7 6 6 6 8 13
10 10 9 9 7 6 4 3 3 3 2 2 3 4 4 4 4 4 3 2 3 2 2 2 1 1 0 1 1 2 2 2 3 4 4 4 6 7 6 7 5 5 5
12 11 10 10 9 7 5 4 3 3 3 3 3 3 4 4 4 4 4 3 3 2 2 2 2 1 1 1 2 1 2 4 3 3 3 4 6 5 6 8 7 7 6
13 13 12 11 9 8 7 4 3 2 1 1 2 2 3 5 5 4 5 4 3 3 3 3 3 3 2 1 2 3 2 3 3 3 3 3 4 4 5 5 7 7 7
14 12 11 11 10 8 8 6 6 5 4 4 3 3 3 4 4 5 5 5 4 3 3 3 3 3 3 1 1 1 3 3 2 2 3 2 3 4 5 6 6 7 7
13 12 11 10 9 9 8 8 7 5 4 3 3 4 4 4 4 5 5 4 4 3 4 3 3 3 3 3 2 1 1 1 2 2 3 3 2 3 3 5 4 5 6
11 11 11 10 10 9 9 8 8 7 5 5 4 5 4 3 3 4 5 4 4 4 4 4 4 4 3 3 2 2 2 2 2 2 3 3 3 3 2 2 3 4 4
Wind_Direction
80 93 95 92 90 89 88 88 93 94 94 95 95 97 98 99 99 100 100 101 102 102 102 103 103 104 104 104 105 106 108 108 109 110 110 111 111 111 114 113 111 109 112
125 107 101 95 95 94 92 92 94 94 95 97 97 99 102 101 102 102 102 101 101 102 103 103 103 103 103 103 104 106 107 106 106 106 106 106 108 110 110 110 109 114 115
116 107 103 99 98 98 96 95 96 97 97 98 98 99 101 102 103 103 103 102 102 103 103 103 103 102 102 102 103 106 107 107 105 102 100 95 104 109 110 112 113 114 115
117 109 108 105 101 101 100 98 98 99 100 101 101 101 102 104 104 104 104 103 104 104 104 103 103 103 101 102 102 104 106 108 107 103 94 92 102 109 111 111 113 115 116
111 106 114 110 106 104 101 101 102 103 103 104 104 105 106 107 106 106 105 104 104 104 105 105 105 103 102 101 100 101 102 105 105 99 91 86 93 111 112 113 115 116 117
115 113 117 114 112 109 106 105 104 106 107 107 108 108 109 109 109 109 109 108 107 107 106 106 105 104 102 99 96 97 100 107 102 98 94 94 99 113 114 114 116 119 120
122 118 120 118 117 115 112 110 109 109 110 110 111 111 111 112 112 111 111 110 109 108 107 106 105 102 101 95 91 94 102 111 105 103 100 99 109 115 117 117 119 122 123
129 123 123 124 121 119 117 114 113 115 116 115 114 114 115 114 114 113 113 113 112 111 111 109 108 104 100 95 91 94 106 113 110 109 105 106 117 117 119 119 122 126 127
130 126 119 123 124 125 122 119 118 121 122 120 120 120 120 118 116 116 116 118 118 118 118 116 111 104 96 92 93 99 109 116 111 117 119 114 121 121 122 122 123 127 129
132 134 129 124 120 121 123 126 125 125 127 129 127 126 125 124 122 121 119 123 124 124 124 121 113 104 93 91 95 102 115 117 109 109 112 126 128 129 128 127 128 130 131
141 146 144 139 135 133 136 137 132 131 130 130 129 130 123 109 111 119 128 131 132 133 135 133 125 107 82 76 89 103 112 119 118 115 126 137 137 137 136 135 135 136 137
156 162 161 157 156 157 150 132 131 132 130 127 129 130 125 128 133 135 138 142 143 145 149 156 160 124 65 57 87 103 117 126 123 134 144 145 146 146 144 144 143 143 144
164 165 167 169 169 168 148 149 152 140 145 147 151 146 138 136 133 128 128 139 143 157 158 211 274 328 281 111 108 124 138 132 137 150 152 152 154 154 153 153 153 152 153
163 167 167 171 170 171 160 164 165 159 160 165 170 161 147 143 149 155 165 172 176 188 198 240 257 263 238 181 155 142 146 143 149 145 162 162 164 165 163 163 165 164 164
158 162 165 167 169 167 161 173 169 169 170 174 168 166 159 155 164 167 182 188 197 192 188 199 217 233 226 159 154 148 147 153 156 157 167 173 172 173 173 174 175 174 174
157 159 160 157 161 158 160 169 168 172 169 165 168 168 163 161 161 159 169 175 184 183 182 181 180 179 169 139 149 155 154 159 164 169 174 182 182 182 185 186 185 184 184
157 155 156 155 151 151 155 162 159 162 161 163 168 165 160 160 159 156 161 170 183 174 161 145 145 89 107 126 142 159 158 167 173 179 181 188 192 196 196 196 196 196 196
157 157 163 160 153 153 149 147 151 151 150 160 162 155 161 159 153 147 155 177 182 154 148 148 126 89 76 128 177 187 168 176 183 188 189 194 196 201 205 205 205 205 206
163 161 163 156 157 158 153 149 147 144 147 156 156 153 166 163 153 149 162 176 162 146 162 179 136 149 172 213 216 216 197 192 193 192 196 202 204 206 207 212 211 211 213
165 164 161 160 164 157 147 135 120 129 151 160 164 168 167 164 154 144 157 167 154 142 150 145 142 147 186 210 266 267 248 222 209 202 202 203 207 211 209 210 211 217 217
166 166 167 166 170 160 151 152 149 163 172 173 180 176 174 174 163 153 156 160 157 159 174 166 147 146 256 152 70 338 319 277 237 224 212 202 210 212 206 209 209 208 216
173 173 171 174 173 172 169 164 163 162 175 180 183 182 182 178 176 173 169 174 170 163 169 171 157 148 265 168 144 108 337 330 312 248 221 213 216 209 210 211 209 209 211
179 179 179 178 176 176 170 153 146 124 123 154 185 197 203 193 190 182 180 179 180 172 187 203 183 175 205 259 172 155 165 239 293 302 256 228 215 210 217 215 213 213 212
185 181 177 176 176 176 171 168 169 175 186 200 187 191 208 206 200 194 187 184 189 190 197 211 200 188 173 224 267 213 192 180 186 297 312 285 241 223 219 220 218 215 213
183 181 178 175 178 178 178 178 179 185 190 188 179 188 203 211 209 204 195 192 193 196 201 208 201 197 184 192 207 223 231 216 184 188 274 302 304 261 229 218 217 215 212
179 180 178 177 183 182 182 183 186 187 186 181 192 197 206 215 220 214 204 199 200 202 207 210 207 205 206 203 207 203 196 193 206 193 229 262 275 278 260 229 218 215 211